EHI
0 0 0 0 0 0 0 0 0 0 0 0 0 0 0 0 0 0 0 0 0 0 0 0 0 0 0 0 0 0 0 0 0 0 0 0 0 0 0 0 0 0 0 0
0 0 0 0 0 0 0 0 0 0 0 0 0 0 0 0 0 0 0 0 0 0 0 0 0 0 0 0 0 0 0 0 0 0 0 0 0 0 0 0 0 0 0 0
0 0 0 0 0 0 0 0 0 0 0 0 0 0 0 0 0 0 0 0 0 0 0 0 0 0 0 0 0 0 0 0 0 0 0 0 0 0 0 0 0 0 0 0
0 0 0 0 0 0 0 0 0 0 0 0 0 0 0 0 0 0 0 0 0 0 0 0 0 0 0 0 0 0 0 0 0 0 0 0 0 0 0 0 0 0 0 0
0 0 0 0 0 0 0 0 0 0 0 0 0 0 0 0 0 0 0 0 0 0 0 0 0 0 0 0 0 0 0 0 0 0 0 0 0 0 0 0 0 0 0 0
0 0 0 0 0 0 0 0 0 0 0 0 0 0 0 0 0 0 0 0 0 0 0 0 0 0 0 0 0 0 0 0 0 0 0 0 0 0 0 0 0 0 0 0
0 0 0 0 0 0 0 0 0 0 0 0 0 0 0 0 0 0 0 0 0 0 0 0 0 0 0 0 0 0 0 0 0 0 0 0 0 0 0 0 0 0 0 0
0 0 0 0 0 0 0 0 0 0 0 0 0 0 0 0 0 0 0 0 0 0 0 0 0 0 0 0 0 0 0 0 0 0 0 0 0 0 0 0 0 0 0 0
0 0 0 0 0 0 0 0 0 0 0 0 0 0 0 0 0 0 0 0 0 0 0 0 0 0 0 0 0 0 0 0 0 0 0 0 0 0 0 0 0 0 0 0
0 0 0 0 0 0 0 0 0 0 0 0 0 0 0 0 0 0 0 0 0 0 0 0 0 0 0 0 0 0 0 0 0 0 0 0 0 0 0 0 0 0 0 0
0 0 0 0 0 0 0 0 0 0 0 0 0 0 0 0 0 0 0 0 0 0 0 0 0 0 0 0 0 0 0 0 0 0 0 0 0 0 0 0 0 0 0 0
0 0 0 0 0 0 0 0 0 0 0 0 0 0 0 0 0 0 0 0 0 0 0 0 0 0 0 0 0 0 0 0 0 0 0 0 0 0 0 0 0 0 0 0
0 0 0 0 0 0 0 0 0 0 0 0 0 0 0 0 0 0 0 0 0 0 0 0 0 0 0 0 0 0 0 0 0 0 0 0 0 0 0 0 0 0 0 0
0 0 0 0 0 0 0 0 0 0 0 0 0 0 0 0 0 0 0 0 0 0 0 0 0 0 0 0 0 0 0 0 0 0 0 0 0 0 0 0 0 0 0 0
0 0 0 0 0 0 0 0 0 0 0 0 0 0 0 0 0 0 0 0 0 0 0 0 0 0 0 0 0 0 0 0 0 0 0 0 0 0 0 0 0 0 0 0
0 0 0 0 0 0 0 0 0 0 0 0 0 0 0 0 0 0 0 0 0 0 0 0 0 0 0 0 0 0 0 0 0 0 0 0 0 0 0 0 0 0 0 0
0 0 0 0 0 0 0 0 0 0 0 0 0 0 0 0 0 0 0 0 0 0 0 0 0 0 0 0 0 0 0 0 0 0 0 0 0 0 0 0 0 0 0 0
0 0 0 0 0 0 0 0 0 0 0 0 0 0 0 0 0 0 0 0 0 0 0 0 0 0 0 0 0 0 0 0 0 0 0 0 0 0 0 0 0 0 0 0
0 0 0 0 0 0 0 0 0 0 0 0 0 0 0 0 0 0 0 0 0 0 0 0 0 0 0 0 0 0 0 0 0 0 0 0 0 0 0 0 0 0 0 0
0 0 0 0 0 0 0 0 0 0 0 0 0 0 0 0 0 0 0 0 0 0 0 0 0 0 0 0 0 0 0 0 0 0 0 0 0 0 0 0 0 0 0 0
0 0 0 0 0 0 0 0 0 0 0 0 0 0 0 0 0 0 0 0 0 0 0 0 0 0 0 0 0 0 0 0 0 0 0 0 0 0 0 0 0 0 0 0
0 0 0 0 0 0 0 0 0 0 0 0 0 0 0 0 0 0 0 0 0 0 0 0 0 0 0 0 0 0 0 0 0 0 0 0 0 0 0 0 0 0 0 0
0 0 0 0 0 0 0 0 0 0 0 0 0 0 0 0 0 0 0 0 0 0 0 0 0 0 0 0 0 0 0 0 0 0 0 0 0 0 0 0 0 0 0 0
0 0 0 0 0 0 0 0 0 0 0 0 0 0 0 0 0 0 0 0 0 0 0 0 0 0 0 0 0 0 0 0 0 0 0 0 0 0 0 0 0 0 0 0
0 0 0 0 0 0 0 0 0 0 0 0 0 0 0 0 0 0 0 0 0 0 0 0 0 0 0 0 0 0 0 0 0 0 0 0 0 0 0 0 0 0 0 0
0 0 0 0 0 0 0 0 0 0 0 0 0 0 0 0 0 0 0 0 0 0 0 0 0 0 0 0 0 0 0 0 0 0 0 0 0 0 0 0 0 0 0 0
0 0 0 0 0 0 0 0 0 0 0 0 0 0 0 0 0 0 0 0 0 0 0 0 0 0 0 0 0 0 0 0 0 0 0 0 0 0 0 0 0 0 0 0
Wind_Speed
5 4 3 5 6 5 7 7 8 8 8 10 7 6 4 3 2 2 2 2 2 2 2 2 2 3 3 3 3 3 2 2 3 3 3 3 3 3 3 3 2 2 1 2
3 3 3 6 8 8 8 7 8 8 11 8 4 3 3 3 3 3 3 3 3 3 2 2 3 3 3 3 3 3 2 3 3 3 3 3 3 3 2 2 2 1 1 1
3 3 3 7 8 8 6 6 6 9 10 4 3 4 4 5 4 4 3 3 3 3 3 3 3 3 3 3 3 2 3 3 3 3 3 3 3 2 2 2 2 2 2 2
1 2 5 7 2 4 5 6 6 6 6 4 4 4 3 3 3 3 4 4 4 3 3 3 2 3 3 3 2 2 3 3 3 3 3 3 2 2 2 2 2 2 2 2
2 3 9 7 3 3 4 6 6 7 7 4 3 4 3 2 2 4 4 3 3 3 3 3 3 2 2 2 2 2 3 4 3 3 3 3 2 2 2 2 2 2 2 2
3 3 7 6 2 1 2 5 4 4 4 3 2 3 5 3 3 3 2 2 2 2 2 3 3 2 2 3 3 3 4 4 3 3 3 3 3 2 2 2 2 2 2 2
4 5 9 5 1 2 2 6 3 2 3 2 3 5 5 3 3 3 3 3 2 2 2 3 3 2 3 3 4 5 4 3 3 3 3 2 2 2 1 2 2 2 2 2
5 5 10 3 3 5 6 3 1 2 2 3 4 4 4 4 3 3 3 3 2 2 3 3 2 2 3 4 5 4 3 3 3 3 2 2 1 1 1 1 1 1 1 2
8 8 5 4 5 4 2 2 3 3 3 3 3 4 4 4 4 4 4 4 3 2 4 4 3 2 4 4 4 4 3 3 3 3 2 2 1 1 1 1 1 1 1 1
5 8 5 5 4 3 2 3 3 3 3 2 4 4 4 4 4 4 4 3 3 3 4 4 4 3 4 4 3 3 3 3 2 2 2 2 1 1 1 1 1 2 1 2
5 6 5 4 5 4 3 3 3 3 2 3 3 4 4 4 4 4 4 3 3 3 4 5 4 4 4 3 3 3 3 2 2 2 2 2 2 2 2 2 2 2 2 2
7 5 4 6 5 3 2 3 3 2 3 3 3 4 4 4 4 3 4 3 3 4 4 4 4 4 4 3 3 3 3 2 2 2 1 1 1 2 3 3 4 4 3 3
5 3 4 5 3 2 3 3 3 2 3 3 3 3 3 3 3 3 4 3 4 4 4 4 4 4 4 3 3 3 3 2 2 2 2 1 1 1 2 3 3 3 4 4
3 1 2 3 3 2 2 2 1 1 2 2 2 2 2 2 3 4 4 4 4 3 3 3 3 4 4 3 3 3 2 3 2 2 2 2 2 1 1 1 2 2 3 4
3 3 4 3 2 1 1 1 1 2 2 2 2 2 2 3 4 4 4 4 3 3 3 3 3 4 3 2 2 2 2 1 1 1 1 1 1 1 1 1 1 1 1 2
3 2 1 1 2 2 1 1 1 2 2 2 2 2 3 3 3 4 4 3 2 3 3 3 3 4 3 2 2 2 1 2 1 1 1 1 1 1 1 1 1 1 1 1
2 3 2 3 3 3 3 3 3 3 2 2 3 2 2 2 3 3 3 3 3 3 3 3 3 3 3 2 1 1 1 2 2 1 1 1 1 1 1 1 1 1 1 2
5 6 5 5 4 4 3 3 2 2 2 2 2 1 1 2 3 3 3 3 3 3 3 3 3 3 3 2 1 1 1 1 1 1 1 1 1 1 1 1 1 1 1 2
3 3 2 3 3 3 3 2 2 2 1 1 1 1 2 2 2 3 3 2 3 3 3 3 5 3 3 3 2 1 1 1 1 1 1 1 1 1 1 1 1 1 1 1
1 1 1 1 1 1 2 1 1 1 1 1 1 1 2 2 2 2 2 2 3 3 4 4 3 2 2 3 2 1 1 1 1 1 1 1 1 1 1 1 1 1 1 1
1 1 1 1 0 0 1 1 1 1 1 1 1 1 2 2 2 2 2 3 4 4 4 5 3 2 2 2 2 1 1 1 1 2 2 1 1 1 1 1 1 1 1 1
1 1 1 1 1 0 1 0 1 1 0 1 1 1 1 2 2 2 2 2 3 5 3 2 3 4 3 2 1 1 1 1 1 1 1 1 1 1 1 1 1 1 1 1
1 1 1 1 1 1 1 0 0 1 1 1 1 1 1 2 1 2 3 3 3 5 3 3 4 5 4 2 1 1 1 1 1 1 1 1 1 1 1 1 1 1 1 1
1 1 1 1 1 1 0 1 1 0 1 1 1 1 1 1 2 1 2 4 5 5 3 4 5 5 4 2 1 1 1 1 1 1 1 1 1 1 1 1 1 1 1 2
1 1 1 2 1 1 1 0 1 1 1 1 1 1 1 1 1 2 2 3 4 4 3 4 6 5 3 2 2 2 2 1 1 1 1 1 1 1 1 1 1 1 1 1
1 1 1 2 1 1 1 1 1 0 0 1 2 1 1 1 2 2 2 2 3 4 3 3 3 3 2 2 2 2 2 2 2 2 1 1 1 1 1 1 2 1 1 1
1 1 0 0 0 1 1 1 1 1 1 1 2 1 1 1 1 2 2 2 2 2 2 2 2 2 2 2 2 2 2 2 2 2 1 1 1 1 1 2 1 1 1 2
Wind_Direction
251 266 241 240 239 214 206 208 217 247 253 265 256 251 256 253 253 264 274 284 284 279 282 293 307 310 312 314 314 308 309 308 298 298 300 305 307 306 308 302 300 299 303 307
286 282 265 266 252 231 232 232 241 263 272 269 266 252 254 257 249 256 263 273 282 283 283 289 292 297 303 301 301 302 304 303 304 308 311 306 304 309 318 323 323 326 312 296
265 316 348 272 236 210 219 220 209 234 252 280 287 262 249 245 241 245 256 268 275 276 270 275 280 281 281 287 295 310 309 306 306 308 307 307 312 324 320 312 315 312 307 303
242 25 253 248 231 205 218 244 226 246 270 273 263 277 262 240 223 247 262 266 273 282 287 284 282 287 292 298 300 304 304 303 304 305 305 306 307 309 307 307 303 297 296 290
156 245 276 286 259 185 200 265 233 239 267 290 322 334 300 257 247 247 256 263 268 274 280 288 286 281 295 299 299 298 295 294 294 291 291 292 290 292 294 301 302 295 291 291
165 210 247 257 265 188 110 280 256 220 244 275 356 307 281 294 303 295 289 282 287 289 293 292 291 289 288 284 288 285 286 284 285 283 278 276 279 284 294 291 293 301 303 298
198 231 261 257 241 111 168 260 285 223 231 217 233 247 274 298 302 296 298 297 295 294 294 290 290 290 284 280 278 284 290 287 288 284 280 273 280 286 293 303 310 306 300 302
178 217 254 215 136 189 234 279 275 253 245 240 261 282 291 293 293 299 304 305 299 295 295 294 286 275 277 281 286 293 291 286 284 281 282 292 286 290 296 297 299 299 303 311
197 220 255 195 209 242 246 257 262 255 263 255 267 276 286 291 287 290 292 296 299 286 293 295 286 268 271 285 298 295 288 281 278 279 276 281 265 270 282 279 279 287 284 297
247 261 259 252 257 270 244 253 265 259 257 247 258 268 280 285 290 291 292 290 295 290 289 291 294 285 272 283 292 291 277 273 273 269 276 284 281 268 259 255 262 274 274 283
251 271 292 270 250 254 265 282 288 289 265 248 255 269 269 276 283 284 289 292 288 279 280 284 294 293 290 284 287 290 276 267 273 265 258 262 270 267 269 256 256 268 261 261
231 237 228 266 269 242 250 268 272 282 289 281 257 265 275 276 277 280 285 289 290 286 282 284 287 290 292 287 277 273 276 271 261 261 261 265 277 305 306 301 300 302 303 300
239 253 243 273 284 244 238 262 270 264 262 279 286 273 275 280 284 285 287 289 285 283 282 283 284 284 287 285 278 264 259 260 256 256 258 261 262 266 299 316 320 322 319 317
253 266 268 265 276 281 274 275 297 311 293 281 289 300 300 295 297 292 290 290 286 282 281 283 286 287 289 287 282 275 265 261 259 245 244 247 247 251 258 277 305 312 318 328
247 238 244 267 288 306 314 333 347 317 318 323 317 314 309 299 294 296 299 301 298 286 285 289 296 296 298 292 287 283 271 258 255 251 244 245 249 254 262 274 282 295 319 325
267 272 246 237 252 283 302 267 258 275 287 297 303 305 300 294 295 300 307 313 304 296 299 299 298 303 309 300 292 290 284 286 289 265 250 248 244 253 264 269 282 287 294 297
207 236 240 255 259 265 252 244 242 253 261 269 280 298 307 313 317 319 323 323 307 297 297 297 299 310 310 298 288 285 287 284 289 285 251 241 238 245 255 258 267 277 282 292
222 226 223 222 226 240 256 256 252 252 253 262 279 292 293 299 302 308 315 324 325 319 313 305 305 311 306 300 284 274 277 273 273 274 277 266 258 267 266 265 264 275 289 297
235 222 218 221 221 219 227 239 250 258 264 241 232 255 272 284 296 306 315 324 322 316 315 313 315 319 306 302 312 279 276 276 279 285 279 275 285 286 279 277 275 276 283 293
222 199 190 209 208 197 216 240 252 265 268 232 225 285 301 303 309 314 321 308 295 293 300 307 314 305 299 297 307 282 270 266 264 270 269 264 265 270 269 271 278 284 286 284
196 178 171 174 208 245 216 208 199 236 264 221 209 242 273 298 309 313 316 309 310 313 312 317 318 303 292 298 305 275 264 263 259 255 254 256 257 258 260 269 280 286 289 291
196 180 180 170 161 266 294 261 205 212 245 265 272 273 289 305 312 308 287 277 301 318 329 317 314 314 321 320 312 296 274 262 257 257 251 249 253 259 262 265 272 279 281 279
203 188 179 182 189 217 313 328 230 188 223 244 249 256 262 271 277 288 300 304 306 318 328 311 315 327 337 341 326 316 312 300 285 279 277 267 258 258 261 265 270 274 275 276
184 183 184 170 135 125 327 307 322 312 286 279 270 265 267 292 299 282 283 310 322 327 326 318 328 339 348 352 336 326 318 309 300 295 291 284 274 272 270 267 271 276 273 270
180 172 157 148 161 197 224 260 4 3 356 334 314 302 292 270 269 295 307 310 318 331 327 328 340 351 357 344 331 320 312 303 300 297 286 281 276 275 276 275 274 274 271 266
177 185 199 213 212 202 196 192 211 258 302 313 312 307 308 307 301 304 308 315 321 332 335 334 337 344 344 340 337 328 319 319 324 323 311 298 287 285 283 281 277 274 272 266
134 141 142 126 267 211 198 197 206 232 238 250 280 292 304 310 314 317 320 326 331 334 332 332 333 334 335 337 338 338 337 335 332 328 323 318 307 298 293 288 285 282 277 270